Cosmos 332 Rocket - Orbit

View from above orbital plane
View from above orbital plane
View from above satellite
View from above satellite

Ground track
Ground track

The orbit data is extracted from the following two-line orbital elements,

1 04370U 70028B   13139.18493590  .00000479  00000-0  10910-3 0  3502
2 04370 074.0423 048.9587 0016182 342.5637 167.5275 14.58647756794629
Epoch (UTC): 19 May 2013 04:26:18
Eccentricity: 0.0016182
inclination: 74.0423°
perigee height: 686 km
apogee height: 709 km
right ascension of ascending node: 48.9587°
argument of perigee: 342.5637°
revolutions per day: 14.58647756
mean anomaly at epoch: 167.5275°
orbit number at epoch: 79462

The dashed part of the orbit path shows where the satellite is in the earth's shadow,  

Developed and maintained by Chris Peat, Heavens-Above GmbH. Please read the updated FAQ before sending e-mail. Imprint. DLR